OAS9604 SKSP-SKBO

Flight info

Callsign OAS9604
Flight time 1h 38m
Altitude 37000
Route BODED2B BODED DCT VUNIB UP530 RNG UQ121 ISVAT ISVAT5E
Aircraft B738/M-SDE2E3FGHIRWXY/LB1

Departure

Time 2026-05-09 02:09
Airport Gustavo Rojas Pinilla International Airport (SKSP)

Arrival

Time 2026-05-09 03:48
Airport El Dorado International Airport (SKBO)
Time Latitude Longitude Altitude Speed Heading
2026-05-09 01:31 12.58673 -81.70270 29 ft 0 kts 150°
2026-05-09 01:56 12.58676 -81.70272 31 ft 3 kts 150°
2026-05-09 01:57 12.58696 -81.70284 31 ft 3 kts 149°
2026-05-09 01:57 12.58713 -81.70294 30 ft 3 kts 163°
2026-05-09 01:57 12.58731 -81.70294 29 ft 3 kts 218°
2026-05-09 01:57 12.58744 -81.70277 28 ft 4 kts 245°
2026-05-09 01:58 12.58754 -81.70257 27 ft 3 kts 239°
2026-05-09 01:58 12.58755 -81.70254 28 ft 1 kts 238°
2026-05-09 02:01 12.58753 -81.70257 27 ft 2 kts 238°
2026-05-09 02:01 12.58734 -81.70289 26 ft 7 kts 238°
2026-05-09 02:02 12.58708 -81.70332 32 ft 7 kts 238°
2026-05-09 02:02 12.58704 -81.70369 33 ft 3 kts 291°
2026-05-09 02:02 12.58713 -81.70394 32 ft 5 kts 290°
2026-05-09 02:02 12.58729 -81.70437 33 ft 8 kts 290°
2026-05-09 02:03 12.58721 -81.70494 35 ft 9 kts 240°
2026-05-09 02:03 12.58686 -81.70555 35 ft 11 kts 240°
2026-05-09 02:03 12.58646 -81.70626 40 ft 12 kts 239°
2026-05-09 02:03 12.58601 -81.70702 43 ft 13 kts 239°
2026-05-09 02:04 12.58555 -81.70782 45 ft 13 kts 240°
2026-05-09 02:04 12.58508 -81.70866 49 ft 14 kts 239°
2026-05-09 02:04 12.58456 -81.70956 50 ft 15 kts 239°
2026-05-09 02:04 12.58401 -81.71051 56 ft 16 kts 239°
2026-05-09 02:05 12.58339 -81.71157 53 ft 18 kts 239°
2026-05-09 02:05 12.58285 -81.71251 56 ft 16 kts 239°
2026-05-09 02:05 12.58228 -81.71351 58 ft 17 kts 239°
2026-05-09 02:05 12.58163 -81.71463 62 ft 19 kts 239°
2026-05-09 02:06 12.58095 -81.71582 65 ft 17 kts 239°
2026-05-09 02:06 12.58033 -81.71687 68 ft 18 kts 239°
2026-05-09 02:06 12.57966 -81.71802 67 ft 19 kts 240°
2026-05-09 02:07 12.57852 -81.71982 84 ft 11 kts 214°
2026-05-09 02:07 12.57816 -81.72023 82 ft 4 kts 261°
2026-05-09 02:07 12.57826 -81.72035 85 ft 1 kts 339°
2026-05-09 02:07 12.57831 -81.72031 85 ft 2 kts 26°
2026-05-09 02:08 12.57842 -81.72017 84 ft 0 kts 58°
2026-05-09 02:08 12.57894 -81.71929 67 ft 47 kts 59°
2026-05-09 02:08 12.58194 -81.71410 60 ft 120 kts 59°
2026-05-09 02:09 12.58716 -81.70494 94 ft 173 kts 59°
2026-05-09 02:09 12.59356 -81.69462 928 ft 166 kts 60°
2026-05-09 02:09 12.59902 -81.68526 2162 ft 140 kts 68°
2026-05-09 02:09 12.59908 -81.67473 2541 ft 174 kts 112°
2026-05-09 02:10 12.59020 -81.66482 2855 ft 204 kts 145°
2026-05-09 02:10 12.57533 -81.66158 3099 ft 242 kts 185°
2026-05-09 02:10 12.55974 -81.66951 3543 ft 266 kts 214°
2026-05-09 02:10 12.54467 -81.68156 4072 ft 280 kts 212°
2026-05-09 02:11 12.52708 -81.68891 4918 ft 274 kts 180°
2026-05-09 02:11 12.50891 -81.68511 5675 ft 268 kts 146°
2026-05-09 02:11 12.49636 -81.67169 6447 ft 263 kts 116°
2026-05-09 02:11 12.48923 -81.65439 7176 ft 267 kts 108°
2026-05-09 02:12 12.48310 -81.63628 7911 ft 270 kts 109°
2026-05-09 02:12 12.47622 -81.61831 8661 ft 275 kts 112°
2026-05-09 02:12 12.46770 -81.60061 9411 ft 278 kts 117°
2026-05-09 02:12 12.45776 -81.58344 10080 ft 284 kts 121°
2026-05-09 02:13 12.44639 -81.56633 10470 ft 301 kts 124°
2026-05-09 02:13 12.43342 -81.54867 10707 ft 321 kts 126°
2026-05-09 02:13 12.41907 -81.53057 11115 ft 332 kts 128°
2026-05-09 02:13 12.40388 -81.51239 11647 ft 340 kts 129°
2026-05-09 02:14 12.38815 -81.49426 12335 ft 341 kts 130°
2026-05-09 02:14 12.37205 -81.47612 12900 ft 347 kts 130°
2026-05-09 02:14 12.35560 -81.45784 13517 ft 351 kts 130°
2026-05-09 02:14 12.33891 -81.43945 14132 ft 354 kts 130°
2026-05-09 02:15 12.32229 -81.42124 14699 ft 357 kts 130°
2026-05-09 02:15 12.30499 -81.40234 15216 ft 362 kts 130°
2026-05-09 02:15 12.28796 -81.38376 15768 ft 364 kts 130°
2026-05-09 02:15 12.27055 -81.36478 16324 ft 367 kts 130°
2026-05-09 02:16 12.25299 -81.34564 16833 ft 371 kts 130°
2026-05-09 02:16 12.23522 -81.32628 17340 ft 375 kts 130°
2026-05-09 02:16 12.21730 -81.30676 17866 ft 378 kts 130°
2026-05-09 02:16 12.19921 -81.28707 18363 ft 381 kts 130°
2026-05-09 02:17 12.18101 -81.26726 18805 ft 384 kts 130°
2026-05-09 02:17 12.16270 -81.24734 19278 ft 385 kts 130°
2026-05-09 02:17 12.14430 -81.22733 19743 ft 387 kts 130°
2026-05-09 02:17 12.12582 -81.20722 20188 ft 389 kts 130°
2026-05-09 02:18 12.10725 -81.18703 20654 ft 391 kts 130°
2026-05-09 02:18 12.08853 -81.16667 21095 ft 394 kts 130°
2026-05-09 02:18 12.06973 -81.14623 21540 ft 395 kts 130°
2026-05-09 02:18 12.05085 -81.12571 21967 ft 398 kts 130°
2026-05-09 02:19 12.03187 -81.10508 22389 ft 400 kts 130°
2026-05-09 02:19 12.01277 -81.08433 22806 ft 402 kts 130°
2026-05-09 02:19 11.99357 -81.06347 23223 ft 404 kts 131°
2026-05-09 02:19 11.97427 -81.04251 23599 ft 406 kts 131°
2026-05-09 02:20 11.95486 -81.02144 23903 ft 409 kts 131°
2026-05-09 02:20 11.93531 -81.00021 24196 ft 412 kts 131°
2026-05-09 02:20 11.91560 -80.97882 24497 ft 415 kts 131°
2026-05-09 02:20 11.89580 -80.95733 24809 ft 417 kts 131°
2026-05-09 02:21 11.87587 -80.93571 25111 ft 419 kts 131°
2026-05-09 02:21 11.85584 -80.91398 25403 ft 422 kts 131°
2026-05-09 02:21 11.83568 -80.89212 25703 ft 424 kts 131°
2026-05-09 02:21 11.81540 -80.87013 25992 ft 427 kts 131°
2026-05-09 02:22 11.79501 -80.84803 26278 ft 429 kts 131°
2026-05-09 02:22 11.77450 -80.82583 26589 ft 431 kts 131°
2026-05-09 02:22 11.75380 -80.80363 26850 ft 434 kts 131°
2026-05-09 02:22 11.73292 -80.78132 27111 ft 436 kts 131°
2026-05-09 02:23 11.71216 -80.75917 27387 ft 438 kts 131°
2026-05-09 02:23 11.69104 -80.73665 27656 ft 440 kts 131°
2026-05-09 02:23 11.66982 -80.71400 27903 ft 443 kts 131°
2026-05-09 02:23 11.64847 -80.69121 28162 ft 445 kts 131°
2026-05-09 02:24 11.62704 -80.66832 28406 ft 448 kts 131°
2026-05-09 02:24 11.60546 -80.64528 28611 ft 451 kts 131°
2026-05-09 02:24 11.58375 -80.62207 28870 ft 453 kts 132°
2026-05-09 02:24 11.56195 -80.59878 29114 ft 455 kts 131°
2026-05-09 02:25 11.54008 -80.57542 29336 ft 457 kts 132°
2026-05-09 02:25 11.51804 -80.55192 29573 ft 459 kts 132°
2026-05-09 02:25 11.49594 -80.52833 29777 ft 462 kts 132°
2026-05-09 02:25 11.47368 -80.50458 29968 ft 464 kts 132°
2026-05-09 02:26 11.45134 -80.48077 30169 ft 466 kts 132°
2026-05-09 02:26 11.42893 -80.45688 30358 ft 467 kts 132°
2026-05-09 02:26 11.40639 -80.43287 30559 ft 469 kts 132°
2026-05-09 02:26 11.38387 -80.40889 30821 ft 468 kts 132°
2026-05-09 02:27 11.36140 -80.38495 31123 ft 467 kts 132°
2026-05-09 02:27 11.33893 -80.36102 31422 ft 466 kts 133°
2026-05-09 02:27 11.31654 -80.33718 31674 ft 466 kts 133°
2026-05-09 02:27 11.29411 -80.31330 31915 ft 467 kts 133°
2026-05-09 02:28 11.27165 -80.28940 32182 ft 466 kts 133°
2026-05-09 02:28 11.24925 -80.26557 32485 ft 466 kts 133°
2026-05-09 02:28 11.22684 -80.24173 32753 ft 465 kts 133°
2026-05-09 02:28 11.20448 -80.21794 33027 ft 465 kts 133°
2026-05-09 02:29 11.18209 -80.19412 33298 ft 465 kts 133°
2026-05-09 02:29 11.15970 -80.17032 33564 ft 465 kts 133°
2026-05-09 02:29 11.13734 -80.14657 33831 ft 465 kts 134°
2026-05-09 02:29 11.11497 -80.12279 34084 ft 464 kts 134°
2026-05-09 02:30 11.09266 -80.09909 34341 ft 463 kts 134°
2026-05-09 02:30 11.07040 -80.07545 34605 ft 462 kts 134°
2026-05-09 02:30 11.04819 -80.05187 34860 ft 461 kts 134°
2026-05-09 02:30 11.02601 -80.02832 35109 ft 460 kts 134°
2026-05-09 02:31 11.00388 -80.00483 35344 ft 459 kts 134°
2026-05-09 02:31 10.98177 -79.98138 35591 ft 458 kts 134°
2026-05-09 02:31 10.96002 -79.95830 35828 ft 457 kts 135°
2026-05-09 02:31 10.93802 -79.93497 36046 ft 457 kts 135°
2026-05-09 02:32 10.91603 -79.91165 36256 ft 457 kts 135°
2026-05-09 02:32 10.89402 -79.88832 36470 ft 456 kts 135°
2026-05-09 02:32 10.87209 -79.86508 36711 ft 455 kts 135°
2026-05-09 02:32 10.85025 -79.84193 36904 ft 453 kts 136°
2026-05-09 02:33 10.82838 -79.81876 36889 ft 455 kts 136°
2026-05-09 02:33 10.78446 -79.77226 36902 ft 455 kts 136°
2026-05-09 02:34 10.74058 -79.72581 36905 ft 455 kts 135°
2026-05-09 02:34 10.69680 -79.67946 36902 ft 455 kts 136°
2026-05-09 02:35 10.65298 -79.63312 36899 ft 454 kts 136°
2026-05-09 02:35 10.60917 -79.58681 36901 ft 454 kts 136°
2026-05-09 02:36 10.56538 -79.54053 36900 ft 454 kts 136°
2026-05-09 02:36 10.52184 -79.49454 36902 ft 454 kts 136°
2026-05-09 02:37 10.47745 -79.44828 36902 ft 455 kts 136°
2026-05-09 02:37 10.43347 -79.40267 36899 ft 455 kts 136°
2026-05-09 02:38 10.38918 -79.35673 36899 ft 455 kts 136°
2026-05-09 02:38 10.34487 -79.31073 36899 ft 456 kts 136°
2026-05-09 02:39 10.30052 -79.26470 36896 ft 456 kts 136°
2026-05-09 02:39 10.25614 -79.21866 36897 ft 456 kts 136°
2026-05-09 02:40 10.21175 -79.17258 36898 ft 456 kts 136°
2026-05-09 02:40 10.16736 -79.12653 36900 ft 456 kts 136°
2026-05-09 02:41 10.12297 -79.08054 36895 ft 456 kts 136°
2026-05-09 02:41 10.07863 -79.03458 36893 ft 456 kts 136°
2026-05-09 02:42 10.03424 -78.98862 36893 ft 455 kts 136°
2026-05-09 02:42 9.98996 -78.94279 36890 ft 455 kts 136°
2026-05-09 02:43 9.94565 -78.89694 36887 ft 454 kts 136°
2026-05-09 02:43 9.90140 -78.85117 36886 ft 454 kts 136°
2026-05-09 02:44 9.85750 -78.80579 36882 ft 454 kts 136°
2026-05-09 02:44 9.81305 -78.75984 36880 ft 453 kts 136°
2026-05-09 02:45 9.77634 -78.72191 36876 ft 453 kts 136°
2026-05-09 02:45 9.72501 -78.66891 36871 ft 453 kts 136°
2026-05-09 02:46 9.68796 -78.63066 36873 ft 454 kts 136°
2026-05-09 02:46 9.63658 -78.57764 36871 ft 454 kts 136°
2026-05-09 02:47 9.59949 -78.53938 36873 ft 454 kts 136°
2026-05-09 02:47 9.55515 -78.49366 36879 ft 455 kts 136°
2026-05-09 02:48 9.51111 -78.44827 36881 ft 455 kts 136°
2026-05-09 02:48 9.46668 -78.40248 36885 ft 456 kts 136°
2026-05-09 02:49 9.42223 -78.35670 36891 ft 456 kts 136°
2026-05-09 02:49 9.37772 -78.31087 36889 ft 456 kts 136°
2026-05-09 02:50 9.33320 -78.26505 36890 ft 456 kts 135°
2026-05-09 02:50 9.28868 -78.21924 36890 ft 456 kts 135°
2026-05-09 02:51 9.24456 -78.17314 36896 ft 456 kts 134°
2026-05-09 02:51 9.20147 -78.12605 36889 ft 455 kts 134°
2026-05-09 02:52 9.15866 -78.07903 36893 ft 454 kts 134°
2026-05-09 02:52 9.11579 -78.03223 36887 ft 452 kts 134°
2026-05-09 02:53 9.07338 -77.98609 36875 ft 449 kts 134°
2026-05-09 02:53 9.03094 -77.93997 36889 ft 447 kts 134°
2026-05-09 02:54 8.98871 -77.89408 36886 ft 445 kts 134°
2026-05-09 02:54 8.94662 -77.84836 36892 ft 444 kts 134°
2026-05-09 02:55 8.90458 -77.80271 36881 ft 443 kts 134°
2026-05-09 02:55 8.86257 -77.75710 36896 ft 443 kts 134°
2026-05-09 02:56 8.82048 -77.71143 36885 ft 444 kts 134°
2026-05-09 02:56 8.77827 -77.66565 36887 ft 446 kts 134°
2026-05-09 02:57 8.73593 -77.61973 36898 ft 447 kts 134°
2026-05-09 02:57 8.69342 -77.57365 36889 ft 449 kts 134°
2026-05-09 02:58 8.65071 -77.52736 36894 ft 451 kts 134°
2026-05-09 02:58 8.60789 -77.48097 36887 ft 452 kts 134°
2026-05-09 02:59 8.56488 -77.43439 36893 ft 453 kts 134°
2026-05-09 02:59 8.52089 -77.38876 36893 ft 454 kts 137°
2026-05-09 03:00 8.47484 -77.34520 36899 ft 453 kts 138°
2026-05-09 03:00 8.42860 -77.30183 36891 ft 454 kts 138°
2026-05-09 03:01 8.38255 -77.25823 36896 ft 453 kts 137°
2026-05-09 03:01 8.33671 -77.21456 36893 ft 453 kts 137°
2026-05-09 03:02 8.29130 -77.17127 36893 ft 452 kts 137°
2026-05-09 03:02 8.24534 -77.12747 36885 ft 451 kts 137°
2026-05-09 03:03 8.20013 -77.08442 36886 ft 449 kts 137°
2026-05-09 03:03 8.15471 -77.04118 36897 ft 448 kts 137°
2026-05-09 03:04 8.10939 -76.99805 36884 ft 448 kts 137°
2026-05-09 03:04 8.06413 -76.95500 36884 ft 447 kts 137°
2026-05-09 03:05 8.01896 -76.91204 36879 ft 446 kts 137°
2026-05-09 03:05 7.97379 -76.86910 36873 ft 446 kts 137°
2026-05-09 03:06 7.92868 -76.82622 36864 ft 445 kts 137°
2026-05-09 03:06 7.88362 -76.78340 36859 ft 445 kts 137°
2026-05-09 03:07 7.83855 -76.74058 36857 ft 445 kts 137°
2026-05-09 03:07 7.79125 -76.70057 36866 ft 444 kts 144°
2026-05-09 03:08 7.74050 -76.66503 36854 ft 444 kts 146°
2026-05-09 03:08 7.68960 -76.62974 36866 ft 444 kts 145°
2026-05-09 03:09 7.63901 -76.59409 36874 ft 444 kts 145°
2026-05-09 03:09 7.58852 -76.55824 36884 ft 443 kts 145°
2026-05-09 03:10 7.53815 -76.52242 36902 ft 443 kts 145°
2026-05-09 03:10 7.48772 -76.48660 36910 ft 443 kts 144°
2026-05-09 03:11 7.43738 -76.45085 36921 ft 443 kts 144°
2026-05-09 03:11 7.38699 -76.41508 36929 ft 443 kts 144°
2026-05-09 03:12 7.33665 -76.37935 36936 ft 442 kts 144°
2026-05-09 03:12 7.28640 -76.34370 36943 ft 442 kts 145°
2026-05-09 03:13 7.21102 -76.29023 36960 ft 441 kts 145°
2026-05-09 03:13 7.16088 -76.25461 36973 ft 441 kts 145°
2026-05-09 03:14 7.11074 -76.21895 36979 ft 441 kts 145°
2026-05-09 03:14 7.06065 -76.18333 36988 ft 441 kts 145°
2026-05-09 03:15 7.01045 -76.14765 36990 ft 442 kts 145°
2026-05-09 03:15 6.96021 -76.11195 37005 ft 442 kts 145°
2026-05-09 03:16 6.91021 -76.07645 37010 ft 443 kts 145°
2026-05-09 03:16 6.85980 -76.04064 37009 ft 444 kts 145°
2026-05-09 03:17 6.80925 -76.00477 37012 ft 445 kts 145°
2026-05-09 03:17 6.75858 -75.96880 37011 ft 446 kts 145°
2026-05-09 03:18 6.70778 -75.93275 37014 ft 447 kts 145°
2026-05-09 03:18 6.65685 -75.89662 37026 ft 448 kts 145°
2026-05-09 03:19 6.60582 -75.86044 37018 ft 450 kts 145°
2026-05-09 03:19 6.55466 -75.82416 37029 ft 451 kts 145°
2026-05-09 03:20 6.50331 -75.78776 37034 ft 452 kts 145°
2026-05-09 03:20 6.45191 -75.75134 37071 ft 453 kts 145°
2026-05-09 03:21 6.40039 -75.71483 37110 ft 452 kts 145°
2026-05-09 03:21 6.34940 -75.67872 37141 ft 445 kts 145°
2026-05-09 03:22 6.29902 -75.64304 37118 ft 443 kts 145°
2026-05-09 03:22 6.27378 -75.62517 36791 ft 441 kts 145°
2026-05-09 03:22 6.24894 -75.60758 36456 ft 435 kts 145°
2026-05-09 03:23 6.22426 -75.59011 36078 ft 431 kts 145°
2026-05-09 03:23 6.19983 -75.57282 35699 ft 428 kts 146°
2026-05-09 03:23 6.17563 -75.55569 35316 ft 425 kts 145°
2026-05-09 03:23 6.15151 -75.53863 34929 ft 422 kts 146°
2026-05-09 03:24 6.12757 -75.52169 34668 ft 420 kts 145°
2026-05-09 03:24 6.10374 -75.50483 34263 ft 418 kts 145°
2026-05-09 03:24 6.08000 -75.48803 33831 ft 416 kts 145°
2026-05-09 03:24 6.05647 -75.47139 33415 ft 413 kts 145°
2026-05-09 03:25 6.03304 -75.45481 33010 ft 410 kts 145°
2026-05-09 03:25 6.00981 -75.43838 32608 ft 407 kts 145°
2026-05-09 03:25 5.98679 -75.42199 32210 ft 404 kts 143°
2026-05-09 03:25 5.96570 -75.40350 31827 ft 402 kts 136°
2026-05-09 03:26 5.94619 -75.38358 31460 ft 399 kts 135°
2026-05-09 03:26 5.92725 -75.36382 31086 ft 397 kts 134°
2026-05-09 03:26 5.90816 -75.34387 30704 ft 395 kts 135°
2026-05-09 03:26 5.88912 -75.32410 30323 ft 393 kts 135°
2026-05-09 03:27 5.87008 -75.30443 29874 ft 392 kts 135°
2026-05-09 03:27 5.85112 -75.28493 29444 ft 389 kts 135°
2026-05-09 03:27 5.83224 -75.26558 29036 ft 386 kts 135°
2026-05-09 03:27 5.81354 -75.24641 28646 ft 383 kts 135°
2026-05-09 03:28 5.79495 -75.22738 28276 ft 380 kts 135°
2026-05-09 03:28 5.77651 -75.20849 27911 ft 377 kts 135°
2026-05-09 03:28 5.75820 -75.18973 27544 ft 375 kts 135°
2026-05-09 03:28 5.73999 -75.17108 27180 ft 373 kts 135°
2026-05-09 03:29 5.72187 -75.15253 26805 ft 371 kts 135°
2026-05-09 03:29 5.70380 -75.13412 26450 ft 369 kts 137°
2026-05-09 03:29 5.68305 -75.11929 26069 ft 366 kts 155°
2026-05-09 03:29 5.65976 -75.10923 25741 ft 363 kts 158°
2026-05-09 03:30 5.63630 -75.09985 25364 ft 362 kts 159°
2026-05-09 03:30 5.61290 -75.09060 24997 ft 361 kts 159°
2026-05-09 03:30 5.58957 -75.08129 24639 ft 360 kts 158°
2026-05-09 03:30 5.56633 -75.07190 24278 ft 359 kts 158°
2026-05-09 03:31 5.54320 -75.06246 23921 ft 359 kts 158°
2026-05-09 03:31 5.52011 -75.05299 23517 ft 358 kts 158°
2026-05-09 03:31 5.49706 -75.04351 23114 ft 357 kts 158°
2026-05-09 03:31 5.47417 -75.03408 22715 ft 355 kts 158°
2026-05-09 03:32 5.45142 -75.02472 22337 ft 352 kts 158°
2026-05-09 03:32 5.42881 -75.01541 21965 ft 350 kts 158°
2026-05-09 03:32 5.40634 -75.00616 21599 ft 348 kts 158°
2026-05-09 03:32 5.38396 -74.99695 21231 ft 346 kts 158°
2026-05-09 03:33 5.36178 -74.98767 20871 ft 345 kts 158°
2026-05-09 03:33 5.33999 -74.97842 20503 ft 344 kts 158°
2026-05-09 03:33 5.31776 -74.96895 20141 ft 342 kts 157°
2026-05-09 03:33 5.29614 -74.95976 19766 ft 342 kts 158°
2026-05-09 03:34 5.27430 -74.95049 19408 ft 340 kts 158°
2026-05-09 03:34 5.25955 -74.94424 19169 ft 340 kts 158°
2026-05-09 03:34 5.23077 -74.93204 18706 ft 339 kts 158°
2026-05-09 03:34 5.20992 -74.92105 18245 ft 342 kts 142°
2026-05-09 03:35 5.19411 -74.90331 17671 ft 340 kts 122°
2026-05-09 03:35 5.18245 -74.88297 17253 ft 333 kts 119°
2026-05-09 03:35 5.17494 -74.86928 17027 ft 330 kts 119°
2026-05-09 03:35 5.16382 -74.84919 16689 ft 329 kts 119°
2026-05-09 03:36 5.15270 -74.82948 16579 ft 320 kts 120°
2026-05-09 03:36 5.14160 -74.81032 16570 ft 317 kts 120°
2026-05-09 03:36 5.13118 -74.79120 16579 ft 318 kts 114°
2026-05-09 03:36 5.12125 -74.77158 16586 ft 312 kts 120°
2026-05-09 03:37 5.11037 -74.75316 16486 ft 304 kts 121°
2026-05-09 03:37 5.09919 -74.73482 15936 ft 312 kts 121°
2026-05-09 03:37 5.08784 -74.71608 15452 ft 317 kts 121°
2026-05-09 03:37 5.07657 -74.69724 15306 ft 310 kts 120°
2026-05-09 03:38 5.06565 -74.67876 15140 ft 306 kts 120°
2026-05-09 03:38 5.05490 -74.66045 14998 ft 303 kts 120°
2026-05-09 03:38 5.04427 -74.64223 14848 ft 302 kts 120°
2026-05-09 03:38 5.03365 -74.62399 14705 ft 304 kts 120°
2026-05-09 03:39 5.02297 -74.60561 14566 ft 307 kts 120°
2026-05-09 03:39 5.01216 -74.58699 14413 ft 308 kts 120°
2026-05-09 03:39 5.00142 -74.56848 14247 ft 307 kts 120°
2026-05-09 03:39 4.99071 -74.55002 14095 ft 305 kts 120°
2026-05-09 03:40 4.98008 -74.53171 13912 ft 304 kts 120°
2026-05-09 03:40 4.96951 -74.51349 13730 ft 303 kts 120°
2026-05-09 03:40 4.95889 -74.49518 13558 ft 302 kts 120°
2026-05-09 03:40 4.94838 -74.47706 13391 ft 300 kts 120°
2026-05-09 03:41 4.93790 -74.45900 13217 ft 299 kts 120°
2026-05-09 03:41 4.92749 -74.44107 13055 ft 293 kts 120°
2026-05-09 03:41 4.91761 -74.42406 12889 ft 281 kts 120°
2026-05-09 03:41 4.90584 -74.40898 12621 ft 273 kts 139°
2026-05-09 03:42 4.89139 -74.39712 12354 ft 266 kts 140°
2026-05-09 03:42 4.87720 -74.38550 12058 ft 262 kts 140°
2026-05-09 03:42 4.86404 -74.37316 11940 ft 255 kts 130°
2026-05-09 03:42 4.85321 -74.35938 11929 ft 249 kts 126°
2026-05-09 03:43 4.84297 -74.34546 11935 ft 248 kts 126°
2026-05-09 03:43 4.83282 -74.33177 11933 ft 241 kts 126°
2026-05-09 03:43 4.82285 -74.31848 11862 ft 239 kts 126°
2026-05-09 03:43 4.81283 -74.30517 11599 ft 238 kts 126°
2026-05-09 03:44 4.80292 -74.29200 11314 ft 235 kts 126°
2026-05-09 03:44 4.79319 -74.27908 11044 ft 229 kts 126°
2026-05-09 03:44 4.78370 -74.26647 10774 ft 224 kts 126°
2026-05-09 03:44 4.77454 -74.25429 10491 ft 213 kts 126°
2026-05-09 03:45 4.76583 -74.24272 10244 ft 202 kts 126°
2026-05-09 03:45 4.75764 -74.23184 10004 ft 189 kts 126°
2026-05-09 03:45 4.75000 -74.22167 9797 ft 174 kts 126°
2026-05-09 03:45 4.74292 -74.21226 9530 ft 164 kts 126°
2026-05-09 03:46 4.73613 -74.20325 9308 ft 164 kts 126°
2026-05-09 03:46 4.72907 -74.19412 9102 ft 168 kts 130°
2026-05-09 03:46 4.72193 -74.18474 8781 ft 169 kts 126°
2026-05-09 03:46 4.71507 -74.17528 8541 ft 168 kts 125°
2026-05-09 03:47 4.70816 -74.16608 8371 ft 166 kts 127°
2026-05-09 03:47 4.70170 -74.15749 8362 ft 133 kts 126°
2026-05-09 03:47 4.69700 -74.15132 8364 ft 90 kts 128°
2026-05-09 03:47 4.69432 -74.14783 8362 ft 53 kts 127°
2026-05-09 03:48 4.69353 -74.14620 8362 ft 14 kts 61°
2026-05-09 03:48 4.69423 -74.14563 8363 ft 11 kts 35°
2026-05-09 03:48 4.69481 -74.14525 8364 ft 9 kts 19°
2026-05-09 03:48 4.69516 -74.14535 8365 ft 5 kts 322°
2026-05-09 03:49 4.69543 -74.14567 8364 ft 7 kts 307°
2026-05-09 03:49 4.69572 -74.14607 8364 ft 8 kts 307°
2026-05-09 03:49 4.69607 -74.14653 8364 ft 9 kts 307°
2026-05-09 03:49 4.69648 -74.14707 8365 ft 11 kts 307°
2026-05-09 03:50 4.69699 -74.14774 8365 ft 12 kts 309°
2026-05-09 03:50 4.69758 -74.14798 8365 ft 10 kts 15°
2026-05-09 03:50 4.69822 -74.14757 8365 ft 12 kts 37°
2026-05-09 03:50 4.69884 -74.14710 8365 ft 9 kts 37°
2026-05-09 03:51 4.69940 -74.14667 8365 ft 11 kts 37°
2026-05-09 03:51 4.70009 -74.14616 8365 ft 14 kts 38°
2026-05-09 03:51 4.70037 -74.14572 8365 ft 5 kts 106°
2026-05-09 03:51 4.70012 -74.14534 8365 ft 8 kts 128°
2026-05-09 03:52 4.69973 -74.14483 8365 ft 11 kts 127°
2026-05-09 03:52 4.69928 -74.14423 8365 ft 10 kts 126°
2026-05-09 03:52 4.69902 -74.14389 8365 ft 7 kts 134°
2026-05-09 03:52 4.69892 -74.14386 8365 ft 0 kts 189°
2026-05-09 03:53 4.69882 -74.14393 8365 ft 3 kts 218°
2026-05-09 03:53 4.69867 -74.14408 8365 ft 1 kts 226°
2026-05-09 03:53 4.69862 -74.14414 8365 ft 1 kts 227°
2026-05-09 03:53 4.69859 -74.14416 8365 ft 0 kts 227°